Location: Winthrop
(48.4780°N, 120.1850°W)
Time: 10:41:52
(UTC-07:00)

ESTCUBE 1 - Visible Passes

Search period start: 16 May 2022 00:00
Search period end: 26 May 2022 00:00
Orbit: 645 x 658 km, 97.9° (Epoch: 16 May)

Date Brightness Start Highest point End Pass type
(mag) Time Alt. Az. Time Alt. Az. Time Alt. Az.
16 May ? 00:09:22 19° WSW 00:10:49 23° W 00:14:24 10° NW visible
16 May ? 21:23:10 10° ENE 21:24:53 12° NE 21:26:36 10° NNE visible
16 May ? 22:58:53 33° SSE 23:00:54 81° ENE 23:05:25 10° NNW visible
17 May ? 00:36:43 11° WSW 00:38:14 13° W 00:40:14 10° WNW visible
17 May ? 21:48:24 10° ESE 21:51:39 20° ENE 21:54:54 10° NNE visible
17 May ? 23:26:14 33° SSW 23:28:02 56° W 23:32:28 10° NNW visible
18 May ? 22:15:45 17° ESE 22:18:30 33° ENE 22:22:32 10° N visible
18 May ? 23:53:35 24° SW 23:55:15 31° W 23:59:17 10° NNW visible
19 May ? 22:43:06 26° SE 22:45:28 58° ENE 22:49:55 10° N visible
20 May ? 00:20:55 15° WSW 00:22:36 18° W 00:25:39 10° NW visible
20 May ? 21:33:51 10° E 21:36:23 15° ENE 21:38:55 10° NNE visible
20 May ? 23:10:27 31° S 23:12:33 79° WSW 23:17:04 10° NNW visible
21 May ? 21:59:58 12° ESE 22:03:11 25° ENE 22:06:49 10° N visible
21 May ? 23:37:47 27° SSW 23:39:43 43° W 23:44:01 10° NNW visible
22 May ? 22:27:18 19° SE 22:30:04 41° ENE 22:34:19 10° N visible
23 May ? 00:05:08 19° SW 00:06:59 24° W 00:10:40 10° NW visible
23 May ? 21:19:48 10° ENE 21:21:07 11° NE 21:22:27 10° NE visible
23 May ? 22:54:39 27° SSE 22:57:05 75° ENE 23:01:35 10° N visible
24 May ? 00:32:28 11° WSW 00:34:22 14° W 00:36:39 10° WNW visible
24 May ? 21:44:46 10° ESE 21:47:51 19° ENE 21:50:57 10° NNE visible
24 May ? 23:21:59 28° S 23:24:11 61° W 23:28:39 10° NNW visible
25 May ? 22:11:30 14° ESE 22:14:42 31° ENE 22:18:38 10° N visible
25 May ? 23:49:20 22° SW 23:51:24 33° W 23:55:29 10° NNW visible
